Regional Weather Roundup
Issued by NWS

Home | Current Version | Previous Version | Text Only | Print | Product List | Glossary On
Versions: 1 2 3 4 5 6 7 8 9 10 11 12 13 14 15 16 17 18 19 20 21 22 23 24 25 26 27 28 29 30 31 32 33 34 35 36 37 38 39 40 41 42 43 44 45 46 47 48 49 50
000
ASUS43 KOAX 150010
RWRNE

WEATHER ROUNDUP FOR NEBRASKA
NATIONAL WEATHER SERVICE OMAHA NE
700 PM CDT SUN SEP 14 2014

NOTES: SATELLITE DATA IS BEING USED TO AUGMENT CLOUD COVER ABOVE
       12000 FEET.
       "FAIR" INDICATES FEW OR NO CLOUDS BELOW 12,000 FEET WITH NO
       SIGNIFICANT WEATHER AND/OR OBSTRUCTIONS TO VISIBILITY.

  * THESE STATIONS DO NOT REPORT WEATHER SUCH AS RAIN...SNOW OR FOG.

NEZ001>004-019>022-054>056-150100-
NEBRASKA PANHANDLE

CITY           SKY/WX    TMP DP  RH WIND       PRES   REMARKS
SCOTTSBLUFF    MOSUNNY   66  49  54 N14       30.03R
6HR MIN TEMP:  51; 6HR MAX TEMP:  72;

ALLIANCE       MOSUNNY   65  51  60 N15       30.03R
6HR MIN TEMP:  59; 6HR MAX TEMP:  72;

CHADRON        MOSUNNY   60  44  55 N13       30.07R
6HR MIN TEMP:  54; 6HR MAX TEMP:  66;

KIMBALL        MOSUNNY   70  53  53 NE15      30.01R
SIDNEY         PTSUNNY   76  42  29 N3        30.00S
6HR MIN TEMP:  65; 6HR MAX TEMP:  79; 6HR PCP: TRACE;

$$

NEZ057>060-069>072-079>082-150100-
SOUTHWEST NEBRASKA

CITY           SKY/WX    TMP DP  RH WIND       PRES   REMARKS
NORTH PLATTE   CLOUDY    68  57  68 SE7       30.00R
6HR MIN TEMP:  65; 6HR MAX TEMP:  73;

IMPERIAL       CLEAR     71  56  58 SE6       29.98R
6HR MIN TEMP:  68; 6HR MAX TEMP:  77;

LEXINGTON      CLOUDY    67  57  69 E9        30.01S
MCCOOK         CLEAR     74  58  57 SE10      29.95F
6HR MIN TEMP:  68; 6HR MAX TEMP:  75;

OGALLALA       SUNNY     72  59  63 SE5       29.99R
$$

NEZ005>010-023>029-035>040-094-150100-
NORTH CENTRAL NEBRASKA

CITY           SKY/WX    TMP DP  RH WIND       PRES   REMARKS
VALENTINE      CLOUDY    59  44  57 E16       30.07R
6HR MIN TEMP:  59; 6HR MAX TEMP:  65;

AINSWORTH      CLOUDY    58  47  65 NE10G16   30.07R
BROKEN BOW     CLOUDY    67  54  63 SE8       30.03S
6HR MIN TEMP:  66; 6HR MAX TEMP:  71;

O`NEILL        CLOUDY    62  53  72 NE8       30.06S
ORD            CLOUDY    64  54  69 E6        30.03S
6HR MIN TEMP:  64; 6HR MAX TEMP:  69;

THEDFORD       CLOUDY    69  55  61 SE8       30.02S
$$

NEZ041-046>049-061>064-073>077-083>087-150100-
SOUTH CENTRAL NEBRASKA

CITY           SKY/WX    TMP DP  RH WIND       PRES   REMARKS
GRAND ISLAND   CLOUDY    66  53  63 SE8       30.05R
6HR MIN TEMP:  66; 6HR MAX TEMP:  72;

AURORA         CLOUDY    66  51  58 SE5       30.05R
HASTINGS       MOCLDY    66  51  58 SE9       30.02F
6HR MIN TEMP:  66; 6HR MAX TEMP:  70;

HEBRON         CLOUDY    67  52  58 E7        30.04F
HOLDREGE       PTCLDY    66  54  66 CALM      30.00F
KEARNEY *      MOCLDY    64  54  68 E7        30.03F
YORK           CLOUDY    66  55  68 S6        30.06R
$$

NEZ011>018-030>034-042>045-150100-
NORTHEAST NEBRASKA

CITY           SKY/WX    TMP DP  RH WIND       PRES   REMARKS
NORFOLK        CLOUDY    65  53  65 E6        30.07R
6HR MIN TEMP:  61; 6HR MAX TEMP:  70;

ALBION         MOCLDY    64  53  67 SE3       30.06S
BLAIR          PTCLDY    67  53  61 SE6       30.08S
COLUMBUS *     CLOUDY    66  52  59 SE6       30.07S
FREMONT        CLEAR     67  52  57 SE5       30.07S
TEKAMAH        CLOUDY    67  54  63 E5        30.08R
6HR MIN TEMP:  66; 6HR MAX TEMP:  72;

WAYNE          CLOUDY    63  54  73 E5        30.09S
$$

NEZ050>053-065>068-078-088>093-150100-
SOUTHEAST NEBRASKA

CITY           SKY/WX    TMP DP  RH WIND       PRES   REMARKS
LINCOLN        CLOUDY    69  52  54 SE7       30.06S
6HR MIN TEMP:  69; 6HR MAX TEMP:  73; 6HR PCP: TRACE;

OMAHA EPPLEY   MOCLDY    68  51  54 SE9       30.07R
6HR MIN TEMP:  67; 6HR MAX TEMP:  72;

BEATRICE       CLOUDY    68  53  58 SE7       30.06F
FALLS CITY     CLOUDY    69  55  60 S6        30.08R
6HR MIN TEMP:  69; 6HR MAX TEMP:  74;

NEBRASKA CITY  CLOUDY    67  47  48 S7        30.08S
PLATTSMOUTH    PTCLDY    67  50  55 SE3       30.07S
$$

NEZ044-045-051>053-067-150100-
OMAHA AREA

CITY           SKY/WX    TMP DP  RH WIND       PRES   REMARKS
OMAHA EPPLEY   MOCLDY    68  51  54 SE9       30.07R
6HR MIN TEMP:  67; 6HR MAX TEMP:  72;

BLAIR          PTCLDY    67  53  61 SE6       30.08S
FREMONT        CLEAR     67  52  57 SE5       30.07S
OFFUTT AFB     PTCLDY    67  55  65 E7        30.07R
PLATTSMOUTH    PTCLDY    67  50  55 SE3       30.07S
WAHOO          FAIR      67  51  56 SE5       30.07S
$$



USA.gov is the U.S. government's official web portal to all federal, state and local government web resources and services.